Regional Weather Roundup
Issued by NWS

Home | Current Version | Previous Version | Graphics & Text | Print | Product List | Glossary On
Versions: 1 2 3 4 5 6 7 8 9 10 11 12 13 14 15 16 17 18 19 20 21 22 23 24 25 26 27 28 29 30 31 32 33 34 35 36 37 38 39 40 41 42 43 44 45 46 47 48 49 50
697
ASUS45 KPSR 181810
RWRAZ

ARIZONA HOURLY REGIONAL WEATHER ROUNDUP
NATIONAL WEATHER SERVICE PHOENIX AZ
1100 AM MST WED APR 18 2018

NOTE: FAIR INDICATES FEW OR NO CLOUDS BELOW 12,000 FEET WITH NO
SIGNIFICANT WEATHER AND/OR OBSTRUCTIONS TO VISIBILITY.

AZZ001>003-036-181900-
NORTHWEST ARIZONA

CITY           SKY/WX    TMP DP  RH WIND       PRES   REMARKS
BULLHEAD CITY  SUNNY     73   5   7 N7        30.05F
KINGMAN        SUNNY     69   7   9 E20G26    30.09F
6HR MIN TEMP:  40; 6HR MAX TEMP:  69;

$$

AZZ004>008-015-016-018-181900-
NORTH CENTRAL ARIZONA

CITY           SKY/WX    TMP DP  RH WIND       PRES   REMARKS
GRAND CANYON   SUNNY     50   1  13 MISG      30.21F
6HR MIN TEMP:  33; 6HR MAX TEMP:  50;

WILLIAMS       SUNNY     54  -2  10 E6        30.17F
PRESCOTT       SUNNY     59  -1   9 SE15      30.15F
6HR MIN TEMP:  29; 6HR MAX TEMP:  60;

FLAGSTAFF      SUNNY     48   2  15 NE10G20   30.23R
6HR MIN TEMP:  29; 6HR MAX TEMP:  48;

PAYSON         SUNNY     61  -6   6 SW9       30.16S
PAGE           SUNNY     54   9  16 NE6       30.24F
6HR MIN TEMP:  38; 6HR MAX TEMP:  55;

$$

AZZ009>014-017-181900-
NORTHEAST ARIZONA

CITY           SKY/WX    TMP DP  RH WIND       PRES   REMARKS
WINSLOW        SUNNY     55   0  10 E6        30.22F
6HR MIN TEMP:  24; 6HR MAX TEMP:  56;

SAINT JOHNS    SUNNY     60   0   9 E12       30.17F
6HR MIN TEMP:  23; 6HR MAX TEMP:  61;

WINDOW ROCK    SUNNY     52  -7   8 VRB3      30.25S
6HR MIN TEMP:  14; 6HR MAX TEMP:  52;

SHOW LOW       SUNNY     55   1  11 VRB5      30.21F
$$

AZZ540-542>544-546-548-181900-
GREATER PHOENIX AREA

CITY           SKY/WX    TMP DP  RH WIND       PRES   REMARKS
PHOENIX        SUNNY     73   9   8 E7        30.05S
6HR MIN TEMP:  54; 6HR MAX TEMP:  73;

BUCKEYE        SUNNY     73  14  10 E12       30.07S
GLENDALE       SUNNY     73  12   9 E6        30.08S
LUKE AFB       SUNNY     73  13  10 E5        30.05F
6HR MIN TEMP:  48; 6HR MAX TEMP:  73;

DEER VALLEY    SUNNY     73   2   6 MISG      30.06S
6HR MIN TEMP:  50; 6HR MAX TEMP:  73;

SCOTTSDALE     SUNNY     73  10   9 CALM      30.08S
6HR MIN TEMP:  51; 6HR MAX TEMP:  73;

MESA-FALCON    SUNNY     72  12  10 SW3       30.07S
CHANDLER       SUNNY     72  10   9 VRB5      30.07S
$$

AZZ539-553-181900-
SOUTHWEST MARICOPA COUNTY AND PINAL COUNTY

CITY           SKY/WX    TMP DP  RH WIND       PRES   REMARKS
CASA GRANDE    SUNNY     71  12  10 CALM      30.08S
6HR MIN TEMP:  45; 6HR MAX TEMP:  71;

GILA BEND      SUNNY     74  14  10 N5        30.05S
6HR MIN TEMP:  49; 6HR MAX TEMP:  74;

$$

AZZ503-504-507>509-181900-
SOUTHEAST ARIZONA

CITY           SKY/WX    TMP DP  RH WIND       PRES   REMARKS
TUCSON         SUNNY     73  11   9 SE5       30.09S
6HR MIN TEMP:  46; 6HR MAX TEMP:  74;

DAVIS-MONTHAN  SUNNY     76  13   9 CALM      30.07S
6HR MIN TEMP:  43; 6HR MAX TEMP:  76;

RYAN FIELD     SUNNY     73  14  10 CALM      30.08F
NOGALES        SUNNY     77   8   7 S12       30.11S
6HR MIN TEMP:  38; 6HR MAX TEMP:  77;

SIERRA VISTA   SUNNY     71   7   8 CALM      30.16S
6HR MIN TEMP:  43; 6HR MAX TEMP:  71;

DOUGLAS        SUNNY     72  16  12 SW8G17    30.15F
6HR MIN TEMP:  32; 6HR MAX TEMP:  72;

SAFFORD        SUNNY     70  11  10 E8        30.10F
6HR MIN TEMP:  39; 6HR MAX TEMP:  70;

$$

AZZ532-181900-
SOUTHWEST ARIZONA

CITY           SKY/WX    TMP DP  RH WIND       PRES   REMARKS
YUMA           SUNNY     74  21  13 S3        30.04S
6HR MIN TEMP:  50; 6HR MAX TEMP:  75;

$$

CAZ041-043-047-048-061-525>527-560>570-181900-
SOUTHERN CALIFORNIA

CITY           SKY/WX    TMP DP  RH WIND       PRES   REMARKS
DOWNTOWN L.A.  SUNNY     70  38  31 CALM      30.05R
6HR MIN TEMP:  53; 6HR MAX TEMP:  71;

L.A. AIRPORT   MOSUNNY   66  45  46 SW15      30.07R
6HR MIN TEMP:  52; 6HR MAX TEMP:  68;

SAN DIEGO      SUNNY     62  49  62 S12       30.10S
6HR MIN TEMP:  54; 6HR MAX TEMP:  62;

BURBANK        SUNNY     69  29  22 S13       30.04S
6HR MIN TEMP:  50; 6HR MAX TEMP:  70;

ONTARIO        MOSUNNY   70  24  17 S6        30.05R
6HR MIN TEMP:  50; 6HR MAX TEMP:  71;

RIVERSIDE      SUNNY     72  19  13 VRB3      30.04S
6HR MIN TEMP:  46; 6HR MAX TEMP:  72;

PALM SPRINGS   SUNNY     78  15   9 SE8       30.03F
6HR MIN TEMP:  54; 6HR MAX TEMP:  78;

EL CENTRO NAS  SUNNY     76  16  10 VRB5      30.04S
6HR MIN TEMP:  47; 6HR MAX TEMP:  77;

IMPERIAL       SUNNY     75  20  12 CALM      30.02S
6HR MIN TEMP:  48; 6HR MAX TEMP:  76;

BLYTHE         SUNNY     72  20  14 VRB3      30.04F
6HR MIN TEMP:  48; 6HR MAX TEMP:  72;

NEEDLES        SUNNY     75   6   7 NE3       30.06F
6HR MIN TEMP:  55; 6HR MAX TEMP:  75;

$$

NVZ020-UTZ003-181900-
SOUTHERN NEVADA-UTAH

CITY           SKY/WX    TMP DP  RH WIND       PRES   REMARKS
LAS VEGAS      MOSUNNY   66   9  10 VRB6      30.10F
6HR MIN TEMP:  53; 6HR MAX TEMP:  66;

SALT LAKE CITY PTSUNNY   50  18  28 VRB3      30.22F
6HR MIN TEMP:  35; 6HR MAX TEMP:  50;

$$

NMZ009-TXZ055-181900-
NEW MEXICO-WEST TEXAS

CITY           SKY/WX    TMP DP  RH WIND       PRES   REMARKS
ALBUQUERQUE    SUNNY     55   1  11 CALM      30.25F
6HR MIN TEMP:  37; 6HR MAX TEMP:  55;

EL PASO        MOSUNNY   73   8   8 N8        30.17F
6HR MIN TEMP:  56; 6HR MAX TEMP:  73;

$$


........................KEY........................
SKY/WX - SKY CONDITION/WEATHER
TMP    - TEMPERATURE IN FAHRENHEIT
DP     - DEW POINT IN FAHRENHEIT
RH     - RELATIVE HUMIDITY IN PERCENT
WIND   - DIRECTION AND SPEED IN MILES PER HOUR (MPH)
VRB    - VARIABLE WIND DIRECTION
PRES   - MEAN SEA LEVEL PRESSURE IN INCHES OF MERCURY
         F - FALLING PRESSURE   R - RISING PRESSURE
         S - STEADY PRESSURE
VSB    - VISIBILITY IN MILES
HX     - HEAT INDEX IN FAHRENHEIT
WCI    - WIND CHILL INDEX IN FAHRENHEIT
TC     - TEMPERATURE IN CELSIUS WHICH IS ALSO KNOWN AS
         TEMPERATURE IN CENTIGRADE
AFB    - AIR FORCE BASE
         LUKE AFB IS LUKE AIR FORCE BASE
         DAVIS-MONTHAN IS DAVIS-MONTHAN AIR FORCE BASE
NAS    - NAVAL AIR STATION
         EL CENTRO NAS IS EL CENTRO NAVAL AIR STATION
N/A    - NOT AVAILABLE





USA.gov is the U.S. government's official web portal to all federal, state and local government web resources and services.